Simultaneous Nadir Overpasses (SNOs) Predictions

Prediction of SNOs between AURA and NPP Satellite Orbit:

Table of predicted SNOs for the next 14.0 days since TLE Epoch: 11/19/2022
Index Date (AURA) Time (AURA) Lat,Lon (AURA) SZA (AURA ) Date (NPP) Time (NPP) Lat,Lon (NPP) SZA (NPP ) Distance(km) Time Diff (sec)
1 11/20/2022 02:52:40 79.24, 32.17 111.37 11/20/2022 02:51:41 79.24, 32.19 111.41 0.57 59
2 11/20/2022 03:41:59 -79.55,-158.08 69.04 11/20/2022 03:42:17 -79.55,-157.99 69.07 1.92 18
3 11/22/2022 19:09:13 79.34, 148.70 111.84 11/22/2022 19:08:31 79.34, 148.76 111.86 1.11 42
4 11/22/2022 19:58:33 -79.61, -41.77 68.53 11/22/2022 19:59:08 -79.62, -41.64 68.57 2.53 35
5 11/25/2022 11:25:49 79.31, -95.62 112.44 11/25/2022 11:25:25 79.30, -95.75 112.49 2.75 24
6 11/25/2022 12:15:09 -79.59, 73.91 67.92 11/25/2022 12:16:02 -79.58, 73.85 67.95 1.28 53
7 11/28/2022 03:42:19 79.46, 21.23 112.77 11/28/2022 03:42:12 79.46, 21.31 112.76 1.80 7
8 11/28/2022 04:31:42 -79.62,-169.99 67.45 11/28/2022 04:32:53 -79.61,-170.13 67.47 3.07 71
9 11/30/2022 19:09:34 -79.21, -32.18 66.43 11/30/2022 19:08:28 -79.21, -32.20 66.37 0.69 66



Historial Predications of SNOs between AURA and NPP
